Regional Weather Roundup
Issued by NWS

Home | Current Version | Previous Version | Graphics & Text | Print | Product List | Glossary On
Versions: 1 2 3 4 5 6 7 8 9 10 11 12 13 14 15 16 17 18 19 20 21 22 23 24 25 26 27 28 29 30 31 32 33 34 35 36 37 38 39 40 41 42 43 44 45 46 47 48 49 50
000
ASUS43 KFSD 040902
RWRSD

WEATHER ROUNDUP FOR SOUTH DAKOTA
NATIONAL WEATHER SERVICE SIOUX FALLS SD
400 AM CDT FRI SEP 04 2015

NOTE: "FAIR" INDICATES FEW OR NO CLOUDS BELOW 12,000 FEET WITH NO
SIGNIFICANT WEATHER AND/OR OBSTRUCTIONS TO VISIBILITY.


SDZ001>005-009-010-012>017-041000-
NORTHWEST AND NORTH CENTRAL SOUTH DAKOTA

CITY           SKY/WX    TMP DP  RH WIND       PRES   REMARKS
BUFFALO          N/A     64  56  75 N6        29.71R
MOBRIDGE       CLOUDY    73  72  96 E9        29.67F
$$

SDZ012>016-024>037-041>051-057-063-072>074-041000-
SOUTHWEST AND SOUTH CENTRAL SOUTH DAKOTA

CITY           SKY/WX    TMP DP  RH WIND       PRES   REMARKS
RAPID CTY ARPT CLOUDY    69  52  54 SE6       29.78S
PIERRE         CLOUDY    71  69  93 S3        29.68R
CUSTER         CLOUDY    63  46  54 CALM      29.93S
PHILIP         CLOUDY    78  55  44 SW13      29.74R
PINE RIDGE     CLOUDY    64  60  87 E6        29.80F
WINNER         LGT RAIN  76  59  55 W25G35    29.77R
$$

SDZ004>011-016>023-039-040-041000-
NORTHEAST SOUTH DAKOTA

CITY           SKY/WX    TMP DP  RH WIND       PRES   REMARKS
ABERDEEN       PTCLDY    74  70  87 E8        29.71F
WATERTOWN      PTCLDY    74  70  87 SE9       29.78F
BROOKINGS      PTCLDY    73  68  83 SE13G20   29.82S
$$

SDZ017-020-022-023-036>040-048>070-041000-
SOUTHEAST SOUTH DAKOTA

CITY           SKY/WX    TMP DP  RH WIND       PRES   REMARKS
SIOUX FALLS    CLEAR     75  68  78 S12       29.81R
HURON          PTCLDY    75  70  84 SE13      29.71S
CHAMBERLAIN    CLOUDY    74  68  83 S8        29.72R
MITCHELL       PTCLDY    75  69  81 S12       29.74R
YANKTON        PTCLDY    75  66  73 S7        29.77R
$$

ABBREVIATIONS USED IN REMARKS
   TC - TEMPERATURE IN CELSIUS
  WCI - WIND CHILL INDEX
   HX - HEAT INDEX
  VSB - VISIBILITY




USA.gov is the U.S. government's official web portal to all federal, state and local government web resources and services.